| time (UTC) | temp F | wind direction | speed MPH | gust MPH | rain 1hr in | rain 24hr in | rain mn in | humidity % | barometer mb |
| 20260901161844 | 66 | 192 | 2.0 | 2.0 | 0.00 | 0.00 | 0.00 | 57 | 1017.4 |
| 20260901161338 | 65 | 209 | 0.0 | 0.0 | 0.00 | 0.00 | 0.00 | 59 | 1017.5 |
| 20260901160833 | 65 | 176 | 0.0 | 0.0 | 0.00 | 0.00 | 0.00 | 60 | 1017.4 |
| 20260901160330 | 65 | 211 | 1.0 | 2.0 | 0.00 | 0.00 | 0.00 | 60 | 1017.4 |
| 20260901155829 | 65 | 231 | 1.0 | 1.0 | 0.00 | 0.00 | 0.00 | 60 | 1017.6 |
| 20260901155324 | 65 | 190 | 2.0 | 2.0 | 0.00 | 0.00 | 0.00 | 60 | 1017.3 |
| 20260901154820 | 65 | 157 | 1.0 | 2.0 | 0.00 | 0.00 | 0.00 | 60 | 1017.5 |
| 20260901154314 | 64 | 177 | 1.0 | 2.0 | 0.00 | 0.00 | 0.00 | 61 | 1017.3 |
| 20260901153809 | 64 | 180 | 0.0 | 0.0 | 0.00 | 0.00 | 0.00 | 61 | 1017.3 |
| 20260901153309 | 64 | 237 | 1.0 | 2.0 | 0.00 | 0.00 | 0.00 | 61 | 1017.2 |
| 20260901152808 | 64 | 216 | 1.0 | 1.0 | 0.00 | 0.00 | 0.00 | 61 | 1017.1 |
| 20260901152306 | 64 | 212 | 0.0 | 1.0 | 0.00 | 0.00 | 0.00 | 62 | 1016.9 |
| 20260901151802 | 64 | 210 | 0.0 | 0.0 | 0.00 | 0.00 | 0.00 | 63 | 1017.0 |
| 20260901151302 | 64 | 197 | 0.0 | 0.0 | 0.00 | 0.00 | 0.00 | 63 | 1017.1 |
| 20260901150755 | 63 | 189 | 0.0 | 0.0 | 0.00 | 0.00 | 0.00 | 63 | 1016.9 |
| 20260901150253 | 63 | 191 | 1.0 | 1.0 | 0.00 | 0.00 | 0.00 | 63 | 1017.0 |
| 20260901145751 | 63 | 199 | 0.0 | 1.0 | 0.00 | 0.00 | 0.00 | 64 | 1017.0 |
| 20260901145246 | 63 | 196 | 0.0 | 0.0 | 0.00 | 0.00 | 0.00 | 65 | 1016.9 |
| 20260901144742 | 62 | 198 | 1.0 | 2.0 | 0.00 | 0.00 | 0.00 | 65 | 1016.8 |
| 20260901144237 | 62 | 203 | 0.0 | 0.0 | 0.00 | 0.00 | 0.00 | 66 | 1016.8 |
| 20260901143733 | 62 | 210 | 1.0 | 2.0 | 0.00 | 0.00 | 0.00 | 66 | 1016.8 |
| 20260901143228 | 62 | 195 | 1.0 | 1.0 | 0.00 | 0.00 | 0.00 | 66 | 1016.6 |
| 20260901142725 | 62 | 189 | 1.0 | 1.0 | 0.00 | 0.00 | 0.00 | 67 | 1016.5 |
| 20260901142223 | 62 | 195 | 1.0 | 1.0 | 0.00 | 0.00 | 0.00 | 67 | 1016.7 |
| 20260901141718 | 62 | 233 | 2.0 | 3.0 | 0.00 | 0.00 | 0.00 | 67 | 1016.4 |
| 20260901141213 | 62 | 205 | 0.0 | 1.0 | 0.00 | 0.00 | 0.00 | 67 | 1016.5 |
| 20260901140712 | 62 | 211 | 1.0 | 1.0 | 0.00 | 0.00 | 0.00 | 67 | 1016.4 |
| 20260901140210 | 61 | 191 | 0.0 | 0.0 | 0.00 | 0.00 | 0.00 | 67 | 1016.2 |
| 20260901135705 | 61 | 197 | 1.0 | 1.0 | 0.00 | 0.00 | 0.00 | 67 | 1016.1 |
| 20260901135200 | 61 | 193 | 0.0 | 0.0 | 0.00 | 0.00 | 0.00 | 68 | 1016.2 |
| 20260901134656 | 61 | 185 | 0.0 | 1.0 | 0.00 | 0.00 | 0.00 | 68 | 1016.1 |
| 20260901134151 | 61 | 211 | 0.0 | 0.0 | 0.00 | 0.00 | 0.00 | 68 | 1016.1 |
| 20260901133651 | 61 | 196 | 0.0 | 0.0 | 0.00 | 0.00 | 0.00 | 68 | 1016.0 |
| 20260901133149 | 61 | 190 | 1.0 | 2.0 | 0.00 | 0.00 | 0.00 | 68 | 1016.0 |
| 20260901132644 | 61 | 210 | 1.0 | 1.0 | 0.00 | 0.00 | 0.00 | 68 | 1015.9 |
| 20260901132143 | 61 | 197 | 0.0 | 1.0 | 0.00 | 0.00 | 0.00 | 68 | 1015.9 |
| 20260901131644 | 61 | 158 | 0.0 | 0.0 | 0.00 | 0.00 | 0.00 | 68 | 1016.0 |
| 20260901131138 | 61 | 199 | 0.0 | 1.0 | 0.00 | 0.00 | 0.00 | 68 | 1015.8 |
| 20260901130633 | 61 | 179 | 0.0 | 0.0 | 0.00 | 0.00 | 0.00 | 68 | 1015.8 |
| 20260901130132 | 61 | 183 | 1.0 | 1.0 | 0.00 | 0.00 | 0.00 | 68 | 1016.0 |
| 20260901125630 | 61 | 193 | 1.0 | 1.0 | 0.00 | 0.00 | 0.00 | 69 | 1015.8 |
| 20260901125125 | 61 | 202 | 1.0 | 1.0 | 0.00 | 0.00 | 0.00 | 69 | 1015.8 |
| 20260901124620 | 61 | 201 | 0.0 | 0.0 | 0.00 | 0.00 | 0.00 | 69 | 1015.8 |
| 20260901124114 | 61 | 195 | 1.0 | 1.0 | 0.00 | 0.00 | 0.00 | 69 | 1015.7 |
| 20260901123614 | 61 | 216 | 1.0 | 1.0 | 0.00 | 0.00 | 0.00 | 70 | 1015.7 |
| 20260901123114 | 61 | 194 | 0.0 | 0.0 | 0.00 | 0.00 | 0.00 | 70 | 1015.9 |
| 20260901122612 | 61 | 201 | 1.0 | 1.0 | 0.00 | 0.00 | 0.00 | 70 | 1015.6 |
| 20260901122107 | 61 | 202 | 0.0 | 1.0 | 0.00 | 0.00 | 0.00 | 70 | 1015.8 |
| 20260901121601 | 61 | 233 | 1.0 | 2.0 | 0.00 | 0.00 | 0.00 | 70 | 1015.7 |
| 20260901121056 | 61 | 203 | 1.0 | 1.0 | 0.00 | 0.00 | 0.00 | 71 | 1015.7 |
| 20260901120551 | 61 | 203 | 0.0 | 0.0 | 0.00 | 0.00 | 0.00 | 71 | 1015.7 |
| 20260901120047 | 61 | 197 | 0.0 | 0.0 | 0.00 | 0.00 | 0.00 | 71 | 1015.7 |
| 20260901115541 | 61 | 187 | 0.0 | 0.0 | 0.00 | 0.00 | 0.00 | 70 | 1015.5 |
| 20260901115038 | 61 | 175 | 0.0 | 0.0 | 0.00 | 0.00 | 0.00 | 70 | 1015.5 |
| 20260901114534 | 61 | 163 | 0.0 | 1.0 | 0.00 | 0.00 | 0.00 | 71 | 1015.7 |
| 20260901114033 | 61 | 201 | 0.0 | 0.0 | 0.00 | 0.00 | 0.00 | 70 | 1015.8 |
| 20260901113532 | 61 | 217 | 0.0 | 0.0 | 0.00 | 0.00 | 0.00 | 69 | 1015.9 |
| 20260901113027 | 61 | 208 | 0.0 | 0.0 | 0.00 | 0.00 | 0.00 | 69 | 1015.9 |
| 20260901112521 | 61 | 208 | 0.0 | 0.0 | 0.00 | 0.00 | 0.00 | 70 | 1016.0 |
| 20260901112017 | 61 | 248 | 1.0 | 2.0 | 0.00 | 0.00 | 0.00 | 72 | 1016.0 |
| 20260901111515 | 61 | 211 | 0.0 | 0.0 | 0.00 | 0.00 | 0.00 | 72 | 1016.0 |
| 20260901111014 | 61 | 202 | 0.0 | 0.0 | 0.00 | 0.00 | 0.00 | 73 | 1016.1 |
| 20260901110510 | 61 | 209 | 0.0 | 0.0 | 0.00 | 0.00 | 0.00 | 72 | 1016.1 |
| 20260901110006 | 61 | 208 | 0.0 | 0.0 | 0.00 | 0.00 | 0.00 | 73 | 1016.2 |
| 20260901105501 | 61 | 209 | 0.0 | 0.0 | 0.00 | 0.00 | 0.00 | 72 | 1015.9 |
| 20260901105001 | 61 | 208 | 0.0 | 0.0 | 0.00 | 0.00 | 0.00 | 72 | 1015.8 |
| 20260901104457 | 61 | 195 | 0.0 | 0.0 | 0.00 | 0.00 | 0.00 | 72 | 1015.9 |
| 20260901103952 | 61 | 208 | 0.0 | 0.0 | 0.00 | 0.00 | 0.00 | 72 | 1015.8 |
| 20260901103447 | 61 | 214 | 0.0 | 0.0 | 0.00 | 0.00 | 0.00 | 72 | 1015.8 |
| 20260901102942 | 61 | 210 | 0.0 | 0.0 | 0.00 | 0.00 | 0.00 | 73 | 1015.8 |
| 20260901102437 | 61 | 206 | 0.0 | 0.0 | 0.00 | 0.00 | 0.00 | 73 | 1015.7 |
| 20260901101931 | 61 | 217 | 0.0 | 0.0 | 0.00 | 0.00 | 0.00 | 73 | 1015.8 |
| 20260901101427 | 61 | 232 | 0.0 | 0.0 | 0.00 | 0.00 | 0.00 | 74 | 1015.6 |
| 20260901100926 | 61 | 209 | 0.0 | 0.0 | 0.00 | 0.00 | 0.00 | 74 | 1015.7 |
| 20260901100421 | 61 | 227 | 0.0 | 0.0 | 0.00 | 0.00 | 0.00 | 74 | 1015.6 |
| 20260901095920 | 61 | 213 | 0.0 | 0.0 | 0.00 | 0.00 | 0.00 | 74 | 1015.3 |
| 20260901095419 | 61 | 209 | 0.0 | 0.0 | 0.00 | 0.00 | 0.00 | 74 | 1015.4 |
| 20260901094912 | 61 | 231 | 0.0 | 0.0 | 0.00 | 0.00 | 0.00 | 74 | 1015.6 |
| 20260901094407 | 61 | 205 | 0.0 | 0.0 | 0.00 | 0.00 | 0.00 | 74 | 1015.4 |
| 20260901093901 | 61 | 206 | 0.0 | 0.0 | 0.00 | 0.00 | 0.00 | 74 | 1015.6 |
| 20260901093401 | 60 | 217 | 0.0 | 0.0 | 0.00 | 0.00 | 0.00 | 74 | 1015.6 |
| 20260901092856 | 60 | 209 | 0.0 | 0.0 | 0.00 | 0.00 | 0.00 | 74 | 1015.4 |
| 20260901092351 | 60 | 199 | 0.0 | 0.0 | 0.00 | 0.00 | 0.00 | 75 | 1015.6 |
| 20260901091847 | 60 | 200 | 0.0 | 0.0 | 0.00 | 0.00 | 0.00 | 74 | 1015.6 |
| 20260901091347 | 60 | 196 | 0.0 | 0.0 | 0.00 | 0.00 | 0.00 | 75 | 1015.5 |
| 20260901090842 | 60 | 199 | 0.0 | 0.0 | 0.00 | 0.00 | 0.00 | 75 | 1015.6 |
| 20260901090342 | 59 | 207 | 0.0 | 0.0 | 0.00 | 0.00 | 0.00 | 76 | 1015.5 |
| 20260901085838 | 59 | 207 | 0.0 | 0.0 | 0.00 | 0.00 | 0.00 | 77 | 1015.6 |
| 20260901085333 | 59 | 199 | 0.0 | 0.0 | 0.00 | 0.00 | 0.00 | 77 | 1015.6 |
| 20260901084829 | 58 | 191 | 0.0 | 0.0 | 0.00 | 0.00 | 0.00 | 77 | 1015.6 |
| 20260901084325 | 59 | 194 | 0.0 | 0.0 | 0.00 | 0.00 | 0.00 | 76 | 1015.6 |
| 20260901083820 | 59 | 194 | 0.0 | 0.0 | 0.00 | 0.00 | 0.00 | 75 | 1015.4 |
| 20260901083315 | 59 | 213 | 0.0 | 0.0 | 0.00 | 0.00 | 0.00 | 75 | 1015.5 |
| 20260901082813 | 60 | 203 | 0.0 | 0.0 | 0.00 | 0.00 | 0.00 | 74 | 1015.5 |
| 20260901082309 | 60 | 206 | 0.0 | 0.0 | 0.00 | 0.00 | 0.00 | 73 | 1015.6 |
| 20260901081804 | 61 | 220 | 0.0 | 1.0 | 0.00 | 0.00 | 0.00 | 73 | 1015.8 |
| 20260901081304 | 61 | 226 | 0.0 | 0.0 | 0.00 | 0.00 | 0.00 | 73 | 1015.5 |
| 20260901080759 | 61 | 210 | 0.0 | 1.0 | 0.00 | 0.00 | 0.00 | 73 | 1015.7 |
| 20260901080258 | 61 | 200 | 0.0 | 0.0 | 0.00 | 0.00 | 0.00 | 73 | 1015.6 |
| 20260901075752 | 61 | 193 | 0.0 | 0.0 | 0.00 | 0.00 | 0.00 | 73 | 1015.6 |
| 20260901075247 | 61 | 216 | 1.0 | 1.0 | 0.00 | 0.00 | 0.00 | 72 | 1015.5 |
| 20260901074742 | 61 | 195 | 0.0 | 0.0 | 0.00 | 0.00 | 0.00 | 72 | 1015.5 |
| 20260901074237 | 61 | 281 | 0.0 | 1.0 | 0.00 | 0.00 | 0.00 | 72 | 1015.6 |
| 20260901073733 | 61 | 295 | 1.0 | 2.0 | 0.00 | 0.00 | 0.00 | 72 | 1015.6 |
| 20260901073229 | 61 | 237 | 1.0 | 1.0 | 0.00 | 0.00 | 0.00 | 72 | 1015.7 |
| 20260901072724 | 61 | 202 | 0.0 | 1.0 | 0.00 | 0.00 | 0.00 | 72 | 1015.8 |
| 20260901072218 | 61 | 202 | 0.0 | 0.0 | 0.00 | 0.00 | 0.00 | 72 | 1015.7 |
| 20260901071713 | 61 | 252 | 1.0 | 1.0 | 0.00 | 0.00 | 0.00 | 72 | 1015.6 |
| 20260901071213 | 61 | 213 | 0.0 | 1.0 | 0.00 | 0.00 | 0.00 | 72 | 1015.8 |
| 20260901070706 | 61 | 202 | 0.0 | 1.0 | 0.00 | 0.00 | 0.00 | 72 | 1015.8 |
| 20260901070202 | 61 | 221 | 0.0 | 0.0 | 0.00 | 0.00 | 0.00 | 72 | 1015.7 |
| 20260901065700 | 61 | 172 | 0.0 | 0.0 | 0.00 | 0.00 | 0.00 | 72 | 1015.8 |
| 20260901065155 | 61 | 227 | 1.0 | 1.0 | 0.00 | 0.00 | 0.00 | 72 | 1015.8 |
| 20260901064652 | 61 | 192 | 0.0 | 1.0 | 0.00 | 0.00 | 0.00 | 72 | 1015.7 |
| 20260901064149 | 61 | 203 | 0.0 | 0.0 | 0.00 | 0.00 | 0.00 | 72 | 1015.9 |
| 20260901063646 | 61 | 203 | 1.0 | 1.0 | 0.00 | 0.00 | 0.00 | 73 | 1015.7 |
| 20260901063141 | 61 | 192 | 1.0 | 1.0 | 0.00 | 0.00 | 0.00 | 73 | 1015.8 |
| 20260901062637 | 61 | 240 | 2.0 | 2.0 | 0.00 | 0.00 | 0.00 | 73 | 1016.0 |
| 20260901062132 | 61 | 199 | 0.0 | 0.0 | 0.00 | 0.00 | 0.00 | 73 | 1015.7 |
| 20260901061629 | 61 | 282 | 1.0 | 2.0 | 0.00 | 0.00 | 0.00 | 73 | 1015.8 |
| 20260901061123 | 61 | 230 | 0.0 | 0.0 | 0.00 | 0.00 | 0.00 | 73 | 1015.8 |
| 20260901060618 | 61 | 200 | 2.0 | 2.0 | 0.00 | 0.00 | 0.00 | 73 | 1015.8 |
| 20260901060113 | 61 | 252 | 0.0 | 0.0 | 0.00 | 0.00 | 0.00 | 73 | 1016.0 |
| 20260901055613 | 61 | 250 | 1.0 | 2.0 | 0.00 | 0.00 | 0.00 | 73 | 1016.1 |
| 20260901055110 | 61 | 206 | 1.0 | 1.0 | 0.00 | 0.00 | 0.00 | 73 | 1016.1 |
| 20260901054607 | 61 | 229 | 0.0 | 1.0 | 0.00 | 0.00 | 0.00 | 73 | 1016.1 |
| 20260901054102 | 61 | 252 | 2.0 | 2.0 | 0.00 | 0.00 | 0.00 | 73 | 1015.9 |
| 20260901053558 | 61 | 223 | 0.0 | 1.0 | 0.00 | 0.00 | 0.00 | 73 | 1015.8 |
| 20260901053054 | 61 | 209 | 0.0 | 0.0 | 0.00 | 0.00 | 0.00 | 74 | 1016.0 |
| 20260901052550 | 61 | 260 | 0.0 | 1.0 | 0.00 | 0.00 | 0.00 | 74 | 1015.9 |
| 20260901052049 | 61 | 267 | 2.0 | 3.0 | 0.00 | 0.00 | 0.00 | 74 | 1015.8 |
| 20260901051544 | 61 | 211 | 1.0 | 1.0 | 0.00 | 0.00 | 0.00 | 75 | 1016.1 |
| 20260901051043 | 61 | 230 | 1.0 | 1.0 | 0.00 | 0.00 | 0.00 | 75 | 1015.9 |
| 20260901050538 | 61 | 209 | 0.0 | 0.0 | 0.00 | 0.00 | 0.00 | 75 | 1015.7 |
| 20260901050033 | 60 | 278 | 2.0 | 2.0 | 0.00 | 0.00 | 0.00 | 76 | 1015.7 |
| 20260901045529 | 60 | 226 | 0.0 | 1.0 | 0.00 | 0.00 | 0.00 | 76 | 1015.8 |
| 20260901045028 | 60 | 237 | 1.0 | 1.0 | 0.00 | 0.00 | 0.00 | 77 | 1015.5 |
| 20260901044525 | 60 | 225 | 1.0 | 1.0 | 0.00 | 0.00 | 0.00 | 76 | 1015.7 |
| 20260901044020 | 60 | 255 | 2.0 | 2.0 | 0.00 | 0.00 | 0.00 | 76 | 1015.6 |
| 20260901043515 | 60 | 240 | 2.0 | 2.0 | 0.00 | 0.00 | 0.00 | 76 | 1015.5 |
| 20260901043011 | 60 | 201 | 2.0 | 2.0 | 0.00 | 0.00 | 0.00 | 76 | 1015.2 |
| 20260901042510 | 61 | 263 | 1.0 | 2.0 | 0.00 | 0.00 | 0.00 | 76 | 1015.5 |
| 20260901042006 | 61 | 207 | 0.0 | 1.0 | 0.00 | 0.00 | 0.00 | 75 | 1015.4 |
| 20260901041506 | 61 | 252 | 1.0 | 1.0 | 0.00 | 0.00 | 0.00 | 75 | 1015.3 |
| 20260901041001 | 61 | 205 | 0.0 | 0.0 | 0.00 | 0.00 | 0.00 | 74 | 1015.4 |
| 20260901040456 | 61 | 206 | 2.0 | 2.0 | 0.00 | 0.00 | 0.00 | 74 | 1015.3 |
| 20260901035955 | 61 | 232 | 3.0 | 3.0 | 0.00 | 0.00 | 0.00 | 74 | 1015.5 |
| 20260901035454 | 61 | 272 | 3.0 | 6.0 | 0.00 | 0.00 | 0.00 | 75 | 1015.3 |
| 20260901034953 | 61 | 284 | 4.0 | 6.0 | 0.00 | 0.00 | 0.00 | 75 | 1015.2 |
| 20260901034452 | 61 | 299 | 2.0 | 3.0 | 0.00 | 0.00 | 0.00 | 75 | 1015.2 |
| 20260901033947 | 62 | 287 | 2.0 | 3.0 | 0.00 | 0.00 | 0.00 | 76 | 1015.2 |
| 20260901033446 | 62 | 208 | 1.0 | 2.0 | 0.00 | 0.00 | 0.00 | 76 | 1015.0 |
| 20260901032945 | 62 | 211 | 1.0 | 1.0 | 0.00 | 0.00 | 0.00 | 76 | 1014.9 |
| 20260901032440 | 62 | 271 | 2.0 | 3.0 | 0.00 | 0.00 | 0.00 | 75 | 1014.9 |
| 20260901031935 | 62 | 227 | 1.0 | 2.0 | 0.00 | 0.00 | 0.00 | 74 | 1014.7 |
| 20260901031431 | 62 | 245 | 1.0 | 2.0 | 0.00 | 0.00 | 0.00 | 74 | 1014.7 |
| 20260901030930 | 62 | 296 | 2.0 | 3.0 | 0.00 | 0.00 | 0.00 | 74 | 1014.7 |
| 20260901030426 | 62 | 286 | 2.0 | 2.0 | 0.00 | 0.00 | 0.00 | 73 | 1014.7 |
| 20260901025925 | 62 | 221 | 1.0 | 2.0 | 0.00 | 0.00 | 0.00 | 73 | 1014.5 |
| 20260901025421 | 63 | 197 | 2.0 | 3.0 | 0.00 | 0.00 | 0.00 | 73 | 1014.4 |
| 20260901024919 | 63 | 227 | 3.0 | 4.0 | 0.00 | 0.00 | 0.00 | 73 | 1014.6 |
| 20260901024414 | 63 | 261 | 2.0 | 2.0 | 0.00 | 0.00 | 0.00 | 73 | 1014.4 |
| 20260901023913 | 63 | 298 | 4.0 | 4.0 | 0.00 | 0.00 | 0.00 | 72 | 1014.4 |
| 20260901023407 | 63 | 193 | 0.0 | 1.0 | 0.00 | 0.00 | 0.00 | 72 | 1014.3 |
| 20260901022903 | 64 | 259 | 3.0 | 3.0 | 0.00 | 0.00 | 0.00 | 72 | 1014.5 |
| 20260901022359 | 64 | 312 | 3.0 | 4.0 | 0.00 | 0.00 | 0.00 | 71 | 1014.5 |
| 20260901021853 | 64 | 293 | 2.0 | 2.0 | 0.00 | 0.00 | 0.00 | 71 | 1014.5 |
| 20260901021349 | 64 | 246 | 1.0 | 2.0 | 0.00 | 0.00 | 0.00 | 71 | 1014.5 |
| 20260901020844 | 64 | 245 | 2.0 | 3.0 | 0.00 | 0.00 | 0.00 | 71 | 1014.4 |
| 20260901020339 | 65 | 237 | 3.0 | 3.0 | 0.00 | 0.00 | 0.00 | 70 | 1014.4 |
| 20260901015833 | 65 | 271 | 4.0 | 4.0 | 0.00 | 0.00 | 0.00 | 69 | 1014.4 |
| 20260901015329 | 65 | 307 | 2.0 | 2.0 | 0.00 | 0.00 | 0.00 | 69 | 1014.3 |
| 20260901014828 | 66 | 218 | 1.0 | 2.0 | 0.00 | 0.00 | 0.00 | 69 | 1014.3 |
| 20260901014325 | 66 | 294 | 2.0 | 3.0 | 0.00 | 0.00 | 0.00 | 67 | 1014.4 |
| 20260901013820 | 67 | 285 | 2.0 | 2.0 | 0.00 | 0.00 | 0.00 | 66 | 1014.3 |
| 20260901013315 | 67 | 240 | 2.0 | 3.0 | 0.00 | 0.00 | 0.00 | 65 | 1014.3 |
| 20260901012810 | 68 | 229 | 3.0 | 4.0 | 0.00 | 0.00 | 0.00 | 64 | 1014.3 |
| 20260901012306 | 67 | 271 | 4.0 | 4.0 | 0.00 | 0.00 | 0.00 | 66 | 1014.3 |
| 20260901011801 | 68 | 17 | 3.0 | 4.0 | 0.00 | 0.00 | 0.00 | 65 | 1014.4 |
| 20260901011256 | 68 | 340 | 4.0 | 6.0 | 0.00 | 0.00 | 0.00 | 65 | 1014.5 |
| 20260901010750 | 68 | 292 | 5.0 | 9.0 | 0.00 | 0.00 | 0.00 | 64 | 1014.3 |
| 20260901010245 | 68 | 352 | 4.0 | 4.0 | 0.00 | 0.00 | 0.00 | 66 | 1014.4 |
| 20260901005743 | 69 | 310 | 4.0 | 4.0 | 0.00 | 0.00 | 0.00 | 64 | 1014.5 |
| 20260901005238 | 68 | 276 | 2.0 | 3.0 | 0.00 | 0.00 | 0.00 | 63 | 1014.3 |
| 20260901004733 | 68 | 296 | 4.0 | 7.0 | 0.00 | 0.00 | 0.00 | 65 | 1014.3 |
| 20260901004227 | 69 | 49 | 2.0 | 2.0 | 0.00 | 0.00 | 0.00 | 63 | 1014.3 |
| 20260901003722 | 69 | 299 | 6.0 | 8.0 | 0.00 | 0.00 | 0.00 | 62 | 1014.5 |
| 20260901003221 | 69 | 269 | 2.0 | 2.0 | 0.00 | 0.00 | 0.00 | 62 | 1014.4 |
| 20260901002715 | 70 | 338 | 6.0 | 9.0 | 0.00 | 0.00 | 0.00 | 61 | 1014.4 |
| 20260901002210 | 69 | 202 | 5.0 | 8.0 | 0.00 | 0.00 | 0.00 | 61 | 1014.4 |
| 20260901001706 | 69 | 258 | 2.0 | 3.0 | 0.00 | 0.00 | 0.00 | 62 | 1014.3 |
| 20260901001200 | 70 | 329 | 5.0 | 7.0 | 0.00 | 0.00 | 0.00 | 60 | 1014.1 |
| 20260901000655 | 70 | 329 | 4.0 | 6.0 | 0.00 | 0.00 | 0.00 | 60 | 1014.4 |
| 20260901000150 | 71 | 3 | 7.0 | 9.0 | 0.00 | 0.00 | 0.00 | 60 | 1014.7 |
| 20260831235644 | 71 | 297 | 3.0 | 3.0 | 0.00 | 0.00 | 0.00 | 60 | 1014.5 |
| 20260831235140 | 70 | 346 | 4.0 | 7.0 | 0.00 | 0.00 | 0.00 | 60 | 1014.5 |
| 20260831234639 | 71 | 215 | 2.0 | 3.0 | 0.00 | 0.00 | 0.00 | 60 | 1014.4 |
| 20260831234135 | 70 | 34 | 4.0 | 4.0 | 0.00 | 0.00 | 0.00 | 60 | 1014.5 |
| 20260831233630 | 72 | 237 | 9.0 | 14.0 | 0.00 | 0.00 | 0.00 | 60 | 1014.7 |
| 20260831233126 | 71 | 335 | 4.0 | 7.0 | 0.00 | 0.00 | 0.00 | 59 | 1014.4 |
| 20260831232621 | 72 | 301 | 7.0 | 8.0 | 0.00 | 0.00 | 0.00 | 59 | 1014.6 |
| 20260831232116 | 71 | 255 | 2.0 | 2.0 | 0.00 | 0.00 | 0.00 | 60 | 1014.6 |
| 20260831231612 | 72 | 339 | 4.0 | 4.0 | 0.00 | 0.00 | 0.00 | 60 | 1014.6 |
| 20260831231107 | 72 | 349 | 2.0 | 2.0 | 0.00 | 0.00 | 0.00 | 59 | 1014.6 |
| 20260831230558 | 72 | 178 | 3.0 | 4.0 | 0.00 | 0.00 | 0.00 | 59 | 1014.7 |
| 20260831230058 | 73 | 89 | 3.0 | 4.0 | 0.00 | 0.00 | 0.00 | 58 | 1014.6 |
| 20260831225553 | 73 | 59 | 2.0 | 2.0 | 0.00 | 0.00 | 0.00 | 59 | 1014.5 |
| 20260831225047 | 73 | 166 | 1.0 | 1.0 | 0.00 | 0.00 | 0.00 | 59 | 1014.7 |
| 20260831224542 | 74 | 86 | 4.0 | 6.0 | 0.00 | 0.00 | 0.00 | 57 | 1014.6 |
| 20260831224038 | 73 | 74 | 5.0 | 7.0 | 0.00 | 0.00 | 0.00 | 59 | 1014.5 |
| 20260831223533 | 73 | 357 | 5.0 | 7.0 | 0.00 | 0.00 | 0.00 | 59 | 1014.7 |
| 20260831223029 | 75 | 11 | 8.0 | 10.0 | 0.00 | 0.00 | 0.00 | 56 | 1014.5 |
| 20260831222525 | 75 | 292 | 3.0 | 3.0 | 0.00 | 0.00 | 0.00 | 54 | 1014.8 |
| 20260831222025 | 73 | 18 | 4.0 | 6.0 | 0.00 | 0.00 | 0.00 | 57 | 1014.8 |
| 20260831221521 | 75 | 299 | 9.0 | 11.0 | 0.00 | 0.00 | 0.00 | 56 | 1014.9 |
| 20260831221016 | 75 | 304 | 2.0 | 2.0 | 0.00 | 0.00 | 0.00 | 56 | 1014.8 |
| 20260831220511 | 75 | 299 | 4.0 | 4.0 | 0.00 | 0.00 | 0.00 | 54 | 1014.8 |
| 20260831220006 | 74 | 326 | 4.0 | 4.0 | 0.00 | 0.00 | 0.00 | 57 | 1014.8 |
| 20260831215502 | 74 | 100 | 3.0 | 4.0 | 0.00 | 0.00 | 0.00 | 58 | 1014.9 |
| 20260831214957 | 76 | 322 | 4.0 | 4.0 | 0.00 | 0.00 | 0.00 | 54 | 1015.1 |
| 20260831214455 | 76 | 253 | 2.0 | 2.0 | 0.00 | 0.00 | 0.00 | 53 | 1015.0 |
| 20260831213950 | 75 | 241 | 2.0 | 2.0 | 0.00 | 0.00 | 0.00 | 54 | 1015.1 |
| 20260831213447 | 75 | 310 | 5.0 | 7.0 | 0.00 | 0.00 | 0.00 | 54 | 1015.2 |
| 20260831212947 | 76 | 341 | 5.0 | 7.0 | 0.00 | 0.00 | 0.00 | 54 | 1015.4 |
| 20260831212443 | 75 | 291 | 1.0 | 2.0 | 0.00 | 0.00 | 0.00 | 55 | 1015.4 |
| 20260831211942 | 75 | 339 | 3.0 | 4.0 | 0.00 | 0.00 | 0.00 | 55 | 1015.3 |
| 20260831211438 | 75 | 321 | 4.0 | 6.0 | 0.00 | 0.00 | 0.00 | 54 | 1015.3 |
| 20260831210937 | 74 | 171 | 1.0 | 1.0 | 0.00 | 0.00 | 0.00 | 57 | 1015.3 |
| 20260831210427 | 74 | 297 | 2.0 | 3.0 | 0.00 | 0.00 | 0.00 | 57 | 1015.5 |
| 20260831205923 | 76 | 270 | 2.0 | 2.0 | 0.00 | 0.00 | 0.00 | 55 | 1015.4 |
| 20260831205418 | 74 | 313 | 0.0 | 0.0 | 0.00 | 0.00 | 0.00 | 55 | 1015.6 |
| 20260831204913 | 73 | 226 | 2.0 | 3.0 | 0.00 | 0.00 | 0.00 | 58 | 1015.6 |
| 20260831204412 | 72 | 353 | 0.0 | 0.0 | 0.00 | 0.00 | 0.00 | 60 | 1015.5 |
| 20260831203911 | 73 | 38 | 1.0 | 1.0 | 0.00 | 0.00 | 0.00 | 60 | 1015.6 |
| 20260831203406 | 74 | 176 | 1.0 | 1.0 | 0.00 | 0.00 | 0.00 | 59 | 1015.5 |
| 20260831202904 | 71 | 220 | 0.0 | 1.0 | 0.00 | 0.00 | 0.00 | 63 | 1015.8 |
| 20260831202400 | 73 | 325 | 2.0 | 2.0 | 0.00 | 0.00 | 0.00 | 59 | 1015.7 |
| 20260831201859 | 72 | 281 | 2.0 | 3.0 | 0.00 | 0.00 | 0.00 | 62 | 1015.6 |
| 20260831201358 | 71 | 355 | 2.0 | 2.0 | 0.00 | 0.00 | 0.00 | 61 | 1015.7 |
| 20260831200854 | 72 | 335 | 2.0 | 3.0 | 0.00 | 0.00 | 0.00 | 60 | 1015.6 |
| 20260831200349 | 75 | 11 | 4.0 | 6.0 | 0.00 | 0.00 | 0.00 | 56 | 1015.6 |
| 20260831195844 | 75 | 325 | 1.0 | 2.0 | 0.00 | 0.00 | 0.00 | 56 | 1015.5 |
| 20260831195340 | 72 | 199 | 1.0 | 2.0 | 0.00 | 0.00 | 0.00 | 60 | 1015.5 |
| 20260831194835 | 73 | 356 | 2.0 | 3.0 | 0.00 | 0.00 | 0.00 | 59 | 1015.8 |
| 20260831194330 | 72 | 186 | 1.0 | 2.0 | 0.00 | 0.00 | 0.00 | 59 | 1015.6 |
| 20260831193829 | 71 | 341 | 1.0 | 2.0 | 0.00 | 0.00 | 0.00 | 61 | 1016.0 |
| 20260831193324 | 71 | 229 | 4.0 | 4.0 | 0.00 | 0.00 | 0.00 | 60 | 1015.9 |
| 20260831192820 | 72 | 300 | 1.0 | 1.0 | 0.00 | 0.00 | 0.00 | 59 | 1016.0 |
| 20260831192315 | 71 | 334 | 4.0 | 4.0 | 0.00 | 0.00 | 0.00 | 61 | 1016.0 |
| 20260831191811 | 71 | 302 | 3.0 | 4.0 | 0.00 | 0.00 | 0.00 | 60 | 1016.0 |
| 20260831191307 | 69 | 211 | 1.0 | 2.0 | 0.00 | 0.00 | 0.00 | 63 | 1015.9 |
| 20260831190802 | 70 | 342 | 3.0 | 6.0 | 0.00 | 0.00 | 0.00 | 62 | 1015.8 |
| 20260831190302 | 69 | 317 | 2.0 | 3.0 | 0.00 | 0.00 | 0.00 | 62 | 1015.9 |
| 20260831185756 | 70 | 323 | 2.0 | 2.0 | 0.00 | 0.00 | 0.00 | 61 | 1015.8 |
| 20260831185252 | 70 | 193 | 1.0 | 2.0 | 0.00 | 0.00 | 0.00 | 61 | 1015.9 |
| 20260831184750 | 70 | 193 | 4.0 | 6.0 | 0.00 | 0.00 | 0.00 | 62 | 1015.9 |
| 20260831184246 | 69 | 197 | 6.0 | 7.0 | 0.00 | 0.00 | 0.00 | 62 | 1016.2 |
| 20260831183742 | 69 | 323 | 1.0 | 3.0 | 0.00 | 0.00 | 0.00 | 64 | 1016.1 |
| 20260831183236 | 68 | 273 | 2.0 | 2.0 | 0.00 | 0.00 | 0.00 | 66 | 1016.2 |
| 20260831182735 | 68 | 288 | 1.0 | 2.0 | 0.00 | 0.00 | 0.00 | 65 | 1016.2 |
| 20260831182230 | 67 | 218 | 2.0 | 3.0 | 0.00 | 0.00 | 0.00 | 65 | 1016.2 |
| 20260831181730 | 68 | 303 | 2.0 | 3.0 | 0.00 | 0.00 | 0.00 | 65 | 1016.3 |
| 20260831181226 | 66 | 200 | 1.0 | 1.0 | 0.00 | 0.00 | 0.00 | 68 | 1016.2 |
| 20260831180720 | 67 | 285 | 2.0 | 3.0 | 0.00 | 0.00 | 0.00 | 67 | 1016.1 |
| 20260831180215 | 67 | 211 | 1.0 | 2.0 | 0.00 | 0.00 | 0.00 | 66 | 1016.3 |
| 20260831175714 | 68 | 284 | 3.0 | 6.0 | 0.00 | 0.00 | 0.00 | 67 | 1016.2 |
| 20260831175211 | 66 | 209 | 1.0 | 1.0 | 0.00 | 0.00 | 0.00 | 68 | 1016.1 |
| 20260831174706 | 65 | 259 | 2.0 | 3.0 | 0.00 | 0.00 | 0.00 | 70 | 1016.2 |
| 20260831174201 | 65 | 294 | 4.0 | 6.0 | 0.00 | 0.00 | 0.00 | 70 | 1016.1 |
| 20260831173700 | 65 | 208 | 0.0 | 1.0 | 0.00 | 0.00 | 0.00 | 71 | 1016.2 |
| 20260831173155 | 65 | 191 | 3.0 | 4.0 | 0.00 | 0.00 | 0.00 | 70 | 1016.4 |
| 20260831172655 | 64 | 199 | 0.0 | 1.0 | 0.00 | 0.00 | 0.00 | 71 | 1016.4 |
| 20260831172150 | 64 | 346 | 2.0 | 3.0 | 0.00 | 0.00 | 0.00 | 72 | 1016.1 |
| 20260831171645 | 64 | 225 | 0.0 | 0.0 | 0.00 | 0.00 | 0.00 | 73 | 1016.1 |
| 20260831171143 | 63 | 225 | 2.0 | 3.0 | 0.00 | 0.00 | 0.00 | 73 | 1016.1 |
| 20260831170638 | 64 | 256 | 2.0 | 3.0 | 0.00 | 0.00 | 0.00 | 72 | 1016.1 |
| 20260831170135 | 63 | 238 | 1.0 | 1.0 | 0.00 | 0.00 | 0.00 | 73 | 1016.2 |
| 20260831165631 | 64 | 264 | 1.0 | 1.0 | 0.00 | 0.00 | 0.00 | 72 | 1015.9 |
| 20260831165127 | 63 | 207 | 0.0 | 1.0 | 0.00 | 0.00 | 0.00 | 73 | 1015.8 |
| 20260831164623 | 63 | 197 | 1.0 | 2.0 | 0.00 | 0.00 | 0.00 | 74 | 1015.9 |
| 20260831164119 | 63 | 227 | 0.0 | 1.0 | 0.00 | 0.00 | 0.00 | 74 | 1015.8 |
| 20260831163613 | 63 | 216 | 0.0 | 1.0 | 0.00 | 0.00 | 0.00 | 74 | 1015.8 |
| 20260831163109 | 62 | 212 | 0.0 | 0.0 | 0.00 | 0.00 | 0.00 | 74 | 1015.8 |
| 20260831162608 | 62 | 264 | 0.0 | 0.0 | 0.00 | 0.00 | 0.00 | 74 | 1015.7 |
| 20260831162106 | 62 | 279 | 0.0 | 1.0 | 0.00 | 0.00 | 0.00 | 76 | 1015.6 |